Home > Weather > Tarija > Past weeks

Flag for Bolivia Weather for the Past 2 Weeks in Tarija, Bolivia

Now
81 °F

Broken clouds.


Feels Like: 83 °F
Forecast: N/A
Wind: No wind

Location: Tarija Airport

Current Time: Feb 6, 2016 at 5:39:01 PM

Latest Report: Feb 6, 2016 at 5:00 PM


Visibility: N/A

Pressure: 30.07 "Hg (24.29 "Hg at 1874m altitude)

Humidity: 62%

Dew point: 66 °F

Location of TarijaLocation

Historic Weather in Tarija — Graph

°F

Tarija Temperature Yesterday

Maximum temperature yesterday: 84 °F (at 2:00 PM)
Minimum temperature yesterday: 59 °F (at 6:00 AM)
Average temperature yesterday: 74 °F

High & Low Weather Summary for the Past Weeks

 TemperatureHumidityPressure
High95 °F (Jan 24, 2:00 PM)100% (Jan 26, 11:00 PM)30.33 "Hg (Jan 26, 11:00 PM)
Low57 °F (Jan 23, 6:00 AM)34% (Jan 24, 2:00 PM)29.71 "Hg (Jan 24, 4:00 PM)
Average72 °F71%30.09 "Hg
* Reported Jan 22 4:00 PM — Feb 6 4:00 PM, Tarija, Weather by CustomWeather, © 2016

Note: Actual official high and low records may vary slightly from our data, if they occured in-between our weather recording intervals... More about our weather records

Advertising

Tarija Weather History for the Previous 24 Hours

 ConditionsComfort  
Time TempWeatherWind HumidityBarometerVisibility
4:00 PM
Sat, Feb 6
81 °FScattered clouds.7 mph58%30.09 "HgN/A
3:00 PM75 °FScattered clouds.No wind61%30.12 "HgN/A
2:00 PM77 °FThunderstorms. Scattered clouds.No wind57%30.15 "HgN/A
1:00 PM82 °FPartly sunny.9 mph55%30.15 "HgN/A
12:00 PM81 °FScattered clouds.5 mph62%30.18 "HgN/A
11:00 AM77 °FScattered clouds.5 mph69%30.21 "HgN/A
9:00 AM72 °FScattered clouds.No wind83%30.24 "HgN/A
8:00 AM68 °FBroken clouds.No wind83%30.24 "HgN/A
7:00 AM66 °FBroken clouds.No wind68%30.21 "HgN/A
6:00 AM66 °FMild.No wind88%30.15 "HgN/A
5:00 AM66 °FPassing clouds.No wind88%30.15 "HgN/A
1:00 AM68 °FPassing clouds.No wind83%30.15 "HgN/A
12:00 AM70 °FPassing clouds.5 mph83%30.15 "HgN/A
11:00 PM
Fri, Feb 5
70 °FPassing clouds.6 mph83%30.15 "HgN/A
10:00 PM70 °FThunderstorms. Passing clouds.5 mph83%30.15 "HgN/A
9:00 PM72 °FPassing clouds.9 mph73%30.09 "HgN/A
8:00 PM73 °FPassing clouds.9 mph65%30.07 "HgN/A
7:00 PM77 °FPassing clouds.7 mph57%30.01 "HgN/A
6:00 PM81 °FPassing clouds.7 mph58%29.98 "HgN/A
5:00 PM82 °FScattered clouds.9 mph55%29.98 "HgN/A
Weather by CustomWeather, © 2016

See weather overviewHow to use our weather pages